| time (UTC) | temp F | wind direction | speed MPH | gust MPH | rain 1hr in | rain 24hr in | rain mn in | humidity % | barometer mb |
| 20260505224557 | 68 | 200 | 7.0 | 14.0 | 0.00 | 0.00 | 0.00 | 61 | 1007.6 |
| 20260505223058 | 68 | 216 | 8.0 | 16.0 | 0.00 | 0.00 | 0.00 | 61 | 1007.4 |
| 20260505221559 | 68 | 236 | 7.0 | 14.0 | 0.00 | 0.00 | 0.00 | 61 | 1007.7 |
| 20260505220056 | 68 | 200 | 9.0 | 18.0 | 0.00 | 0.00 | 0.00 | 60 | 1007.4 |
| 20260505214606 | 69 | 166 | 7.0 | 18.0 | 0.00 | 0.00 | 0.00 | 58 | 1007.3 |
| 20260505213100 | 71 | 196 | 5.0 | 19.0 | 0.00 | 0.00 | 0.00 | 57 | 1007.1 |
| 20260505211607 | 71 | 184 | 9.0 | 17.0 | 0.00 | 0.00 | 0.00 | 56 | 1007.0 |
| 20260505210106 | 72 | 167 | 9.0 | 22.0 | 0.00 | 0.00 | 0.00 | 55 | 1007.1 |
| 20260505204554 | 72 | 178 | 9.0 | 16.0 | 0.00 | 0.00 | 0.00 | 54 | 1007.1 |
| 20260505203054 | 73 | 181 | 8.0 | 17.0 | 0.00 | 0.00 | 0.00 | 54 | 1007.2 |
| 20260505201605 | 73 | 136 | 6.0 | 21.0 | 0.00 | 0.00 | 0.00 | 54 | 1007.3 |
| 20260505200053 | 73 | 142 | 10.0 | 19.0 | 0.00 | 0.00 | 0.00 | 54 | 1007.4 |
| 20260505194558 | 73 | 159 | 9.0 | 22.0 | 0.00 | 0.00 | 0.00 | 54 | 1007.7 |
| 20260505193054 | 72 | 172 | 10.0 | 19.0 | 0.00 | 0.00 | 0.00 | 54 | 1007.9 |
| 20260505191557 | 73 | 229 | 12.0 | 24.0 | 0.00 | 0.00 | 0.00 | 53 | 1007.9 |
| 20260505190111 | 74 | 181 | 7.0 | 17.0 | 0.00 | 0.00 | 0.00 | 53 | 1008.4 |
| 20260505184607 | 75 | 179 | 6.0 | 14.0 | 0.00 | 0.00 | 0.00 | 53 | 1008.6 |
| 20260505183054 | 75 | 128 | 6.0 | 22.0 | 0.00 | 0.00 | 0.00 | 53 | 1008.7 |
| 20260505181557 | 75 | 165 | 10.0 | 25.0 | 0.00 | 0.00 | 0.00 | 52 | 1008.7 |
| 20260505180055 | 76 | 188 | 10.0 | 19.0 | 0.00 | 0.00 | 0.00 | 51 | 1008.6 |
| 20260505174552 | 77 | 159 | 12.0 | 26.0 | 0.00 | 0.00 | 0.00 | 48 | 1008.7 |
| 20260505173056 | 78 | 161 | 7.0 | 18.0 | 0.00 | 0.00 | 0.00 | 45 | 1008.8 |
| 20260505171554 | 77 | 262 | 7.0 | 21.0 | 0.00 | 0.00 | 0.00 | 46 | 1008.9 |
| 20260505170105 | 76 | 214 | 9.0 | 20.0 | 0.00 | 0.00 | 0.00 | 47 | 1009.2 |
| 20260505164555 | 76 | 162 | 9.0 | 18.0 | 0.00 | 0.00 | 0.00 | 48 | 1009.3 |
| 20260505163107 | 75 | 180 | 8.0 | 15.0 | 0.00 | 0.00 | 0.00 | 50 | 1009.3 |
| 20260505161552 | 74 | 107 | 7.0 | 17.0 | 0.00 | 0.00 | 0.00 | 52 | 1009.7 |
| 20260505153107 | 74 | 219 | 5.0 | 13.0 | 0.00 | 0.00 | 0.00 | 51 | 1009.9 |
| 20260505151554 | 75 | 217 | 6.0 | 14.0 | 0.00 | 0.00 | 0.00 | 50 | 1010.0 |
| 20260505150111 | 75 | 234 | 4.0 | 12.0 | 0.00 | 0.00 | 0.00 | 49 | 1010.1 |
| 20260505140110 | 70 | 158 | 2.0 | 8.0 | 0.00 | 0.00 | 0.00 | 58 | 1010.2 |
| 20260505130110 | 64 | 133 | 3.0 | 7.0 | 0.00 | 0.00 | 0.00 | 68 | 1010.1 |
| 20260505124609 | 62 | 155 | 2.0 | 7.0 | 0.00 | 0.00 | 0.00 | 73 | 1010.1 |
| 20260505123114 | 60 | 151 | 1.0 | 6.0 | 0.00 | 0.00 | 0.00 | 78 | 1010.1 |
| 20260505121556 | 58 | 158 | 3.0 | 7.0 | 0.00 | 0.00 | 0.00 | 81 | 1010.4 |
| 20260505120056 | 57 | 0 | 0.0 | 5.0 | 0.00 | 0.00 | 0.00 | 83 | 1010.2 |
| 20260505114602 | 57 | 186 | 1.0 | 5.0 | 0.00 | 0.00 | 0.00 | 84 | 1010.4 |
| 20260505113055 | 56 | 0 | 0.0 | 2.0 | 0.00 | 0.00 | 0.00 | 87 | 1010.4 |
| 20260505111600 | 53 | 0 | 0.0 | 0.0 | 0.00 | 0.00 | 0.00 | 92 | 1010.3 |
| 20260505101553 | 49 | 0 | 0.0 | 0.0 | 0.00 | 0.00 | 0.00 | 92 | 1009.9 |
| 20260505100103 | 49 | 0 | 0.0 | 0.0 | 0.00 | 0.00 | 0.00 | 92 | 1009.5 |
| 20260505094604 | 49 | 0 | 0.0 | 0.0 | 0.00 | 0.00 | 0.00 | 91 | 1009.5 |
| 20260505093056 | 49 | 0 | 0.0 | 0.0 | 0.00 | 0.00 | 0.00 | 90 | 1009.4 |
| 20260505091554 | 50 | 0 | 0.0 | 3.0 | 0.00 | 0.00 | 0.00 | 91 | 1009.4 |
| 20260505090111 | 50 | 0 | 1.0 | 2.0 | 0.00 | 0.00 | 0.00 | 90 | 1009.4 |
| 20260505084554 | 51 | 0 | 0.0 | 1.0 | 0.00 | 0.00 | 0.00 | 89 | 1009.4 |
| 20260505083108 | 51 | 0 | 0.0 | 0.0 | 0.00 | 0.00 | 0.00 | 88 | 1009.3 |
| 20260505081554 | 52 | 0 | 0.0 | 3.0 | 0.00 | 0.00 | 0.00 | 89 | 1009.4 |
| 20260505080058 | 52 | 211 | 1.0 | 5.0 | 0.00 | 0.00 | 0.00 | 89 | 1009.5 |
| 20260505074556 | 52 | 211 | 3.0 | 6.0 | 0.00 | 0.00 | 0.00 | 89 | 1009.3 |
| 20260505073101 | 52 | 174 | 1.0 | 5.0 | 0.00 | 0.00 | 0.00 | 88 | 1009.3 |
| 20260505071559 | 52 | 213 | 2.0 | 4.0 | 0.00 | 0.00 | 0.00 | 87 | 1009.2 |
| 20260505070057 | 53 | 0 | 0.0 | 1.0 | 0.00 | 0.00 | 0.00 | 85 | 1009.3 |
| 20260505064554 | 53 | 215 | 0.0 | 3.0 | 0.00 | 0.00 | 0.00 | 83 | 1009.4 |
| 20260505063100 | 54 | 0 | 0.0 | 0.0 | 0.00 | 0.00 | 0.00 | 81 | 1009.4 |
| 20260505061602 | 54 | 171 | 1.0 | 3.0 | 0.00 | 0.00 | 0.00 | 79 | 1009.6 |
| 20260505060055 | 55 | 169 | 2.0 | 5.0 | 0.00 | 0.00 | 0.00 | 78 | 1009.5 |
| 20260505054558 | 55 | 167 | 1.0 | 5.0 | 0.00 | 0.00 | 0.00 | 75 | 1009.5 |
| 20260505053055 | 56 | 190 | 2.0 | 4.0 | 0.00 | 0.00 | 0.00 | 72 | 1009.7 |
| 20260505051558 | 57 | 209 | 3.0 | 8.0 | 0.00 | 0.00 | 0.00 | 71 | 1009.7 |
| 20260505050128 | 57 | 198 | 2.0 | 8.0 | 0.00 | 0.00 | 0.00 | 71 | 1009.8 |
| 20260505041604 | 58 | 239 | 4.0 | 9.0 | 0.00 | 0.00 | 0.00 | 68 | 1010.1 |
| 20260505040100 | 58 | 216 | 4.0 | 12.0 | 0.00 | 0.00 | 0.00 | 68 | 1010.1 |
| 20260505034554 | 58 | 184 | 4.0 | 9.0 | 0.00 | 0.00 | 0.00 | 68 | 1010.2 |
| 20260505033055 | 58 | 207 | 3.0 | 8.0 | 0.00 | 0.00 | 0.00 | 68 | 1010.2 |
| 20260505031556 | 58 | 215 | 3.0 | 8.0 | 0.00 | 0.00 | 0.00 | 68 | 1010.4 |
| 20260505030058 | 58 | 180 | 3.0 | 9.0 | 0.00 | 0.00 | 0.00 | 69 | 1010.2 |
| 20260505024555 | 58 | 167 | 3.0 | 8.0 | 0.00 | 0.00 | 0.00 | 69 | 1010.2 |
| 20260505023055 | 58 | 213 | 4.0 | 8.0 | 0.00 | 0.00 | 0.00 | 70 | 1010.4 |
| 20260505021556 | 57 | 194 | 2.0 | 6.0 | 0.00 | 0.00 | 0.00 | 72 | 1010.5 |
| 20260505020054 | 58 | 172 | 1.0 | 6.0 | 0.00 | 0.00 | 0.00 | 71 | 1010.4 |
| 20260505014606 | 58 | 196 | 2.0 | 10.0 | 0.00 | 0.00 | 0.00 | 70 | 1010.4 |
| 20260505013054 | 58 | 163 | 3.0 | 9.0 | 0.00 | 0.00 | 0.00 | 70 | 1010.3 |
| 20260505011604 | 58 | 192 | 4.0 | 10.0 | 0.00 | 0.00 | 0.00 | 71 | 1010.0 |
| 20260505010100 | 58 | 204 | 4.0 | 9.0 | 0.00 | 0.00 | 0.00 | 71 | 1009.8 |
| 20260505004559 | 58 | 171 | 3.0 | 8.0 | 0.00 | 0.00 | 0.00 | 71 | 1009.8 |
| 20260505003101 | 58 | 206 | 4.0 | 11.0 | 0.00 | 0.00 | 0.00 | 69 | 1009.5 |
| 20260505001609 | 59 | 207 | 4.0 | 11.0 | 0.00 | 0.00 | 0.00 | 68 | 1009.3 |
| 20260505000131 | 59 | 175 | 7.0 | 14.0 | 0.00 | 0.00 | 0.00 | 67 | 1009.0 |
| 20260504234611 | 59 | 190 | 7.0 | 17.0 | 0.00 | 0.00 | 0.00 | 66 | 1008.8 |
| 20260504233105 | 60 | 219 | 7.0 | 16.0 | 0.00 | 0.00 | 0.00 | 63 | 1008.6 |
| 20260504231553 | 61 | 221 | 7.0 | 15.0 | 0.00 | 0.00 | 0.00 | 61 | 1008.5 |
| 20260504230053 | 62 | 198 | 6.0 | 16.0 | 0.00 | 0.00 | 0.00 | 59 | 1008.4 |